Satellite: FENGYUN 1D
Catalog number: 27431
Epoch time:      103034.18698939
Element set:     206 
Inclination:       98.7711 deg
RA of node:        83.5791 deg
Eccentricity:    0.0015722
Arg of perigee:   165.5598 deg
Mean anomaly:     194.6026 deg
Mean motion:   14.09176413 rev/day
Decay rate:   -1.9999E-008 rev/day^2
Epoch rev:            3720
Checksum:              341

Satellite: NOAA 17
Catalog number: 27453
Epoch time:      103033.95915472
Element set:     293 
Inclination:       98.7607 deg
RA of node:       105.2517 deg
Eccentricity:    0.0012526
Arg of perigee:    44.9063 deg
Mean anomaly:     315.3126 deg
Mean motion:   14.23282868 rev/day
Decay rate:    2.1200E-006 rev/day^2
Epoch rev:            3174
Checksum:              293

Satellite: HOT BIRD 6
Catalog number: 27499
Epoch time:      103013.80550721
Element set:     66 
Inclination:        0.0928 deg
RA of node:        32.8693 deg
Eccentricity:    0.0008090
Arg of perigee:   290.3889 deg
Mean anomaly:      92.5421 deg
Mean motion:    1.00271722 rev/day
Decay rate:    1.0600E-006 rev/day^2
Epoch rev:             147
Checksum:              269

Satellite: RUBIN 2
Catalog number: 27605
Epoch time:      103034.08331465
Element set:     45 
Inclination:       64.5552 deg
RA of node:       244.2642 deg
Eccentricity:    0.0030700
Arg of perigee:   121.7162 deg
Mean anomaly:     238.6954 deg
Mean motion:   14.71397369 rev/day
Decay rate:   -1.1000E-007 rev/day^2
Epoch rev:             653
Checksum:              271


Read previous mail | Read next mail


 14.03.2026 15:04:08lGo back Go up